Theta_e
354 355 355 355 354 355 356 356 356 355 356 356 357 358 359 359 360 359 360 361 362 361 362 362 362 360 361 361 361 359 360 358 357 357 350 351 347 345 343 342 341 341
354 355 356 356 355 356 356 358 357 356 355 358 357 358 360 361 361 360 359 361 363 362 362 362 361 361 360 360 362 359 359 358 356 360 353 351 348 346 344 342 341 340
354 355 355 355 355 355 355 358 359 357 357 358 360 360 360 362 361 360 359 361 362 362 362 363 361 361 361 360 361 360 358 357 357 358 356 351 349 347 345 344 341 340
354 355 355 356 356 355 355 355 359 359 359 358 359 361 361 363 362 360 360 364 361 362 362 362 362 361 361 361 360 360 360 358 358 358 356 353 351 349 347 345 343 341
354 354 355 356 356 357 356 354 356 360 360 360 360 361 362 361 361 360 360 360 361 361 362 362 362 361 361 361 361 359 360 359 358 357 356 354 352 350 349 347 344 341
354 355 355 356 356 356 355 354 355 358 361 361 360 361 361 361 360 361 360 360 360 361 361 362 361 362 361 360 362 360 360 360 359 358 356 354 353 352 351 349 346 342
354 354 354 356 356 356 356 355 355 355 359 361 362 360 360 359 360 360 359 360 361 361 361 361 361 361 362 361 361 361 360 360 360 359 357 355 354 352 351 349 347 345
354 354 355 356 356 356 356 356 355 355 356 358 360 361 360 358 359 360 360 359 360 360 361 362 362 361 362 362 361 360 360 361 360 359 358 356 354 352 351 350 348 346
355 354 355 355 355 356 356 356 356 354 355 355 357 360 361 359 357 359 360 359 358 359 360 361 362 362 362 362 361 360 360 360 360 359 358 357 355 353 352 350 348 347
355 355 355 355 355 356 356 357 357 356 355 355 356 357 359 360 359 357 358 360 359 358 358 360 362 362 362 362 362 361 360 359 359 359 359 358 357 355 353 351 349 348
355 355 355 355 355 356 356 357 357 357 356 355 356 356 357 359 360 358 356 358 360 359 358 358 360 362 361 361 362 362 360 359 358 357 358 359 358 357 358 353 350 349
355 355 354 355 355 355 356 357 357 357 357 357 357 356 357 358 359 359 357 355 358 361 361 359 360 361 362 361 361 361 361 360 359 357 357 358 358 357 357 355 353 350
355 355 355 355 355 355 355 356 356 356 357 357 358 357 356 357 358 358 359 358 356 358 361 362 361 361 362 361 361 361 361 360 359 357 356 357 358 358 357 357 355 353
355 355 355 355 355 355 355 355 355 355 355 357 358 357 356 356 357 357 358 359 359 358 359 361 362 362 361 361 361 360 361 360 359 358 357 356 357 358 357 357 356 355
355 355 355 356 356 356 355 355 355 355 355 356 357 357 357 356 356 358 357 358 360 360 359 360 361 362 362 362 361 360 360 360 360 359 358 356 356 356 357 357 356 356
356 355 355 355 356 356 356 356 355 355 354 354 357 357 356 356 355 355 358 358 358 360 361 360 360 362 354 342 346 360 359 360 360 360 358 357 356 355 356 356 356 356
356 355 355 354 355 356 356 356 355 354 353 353 355 358 358 357 356 354 355 358 358 359 360 361 361 360 342 335 337 341 356 360 359 360 359 358 357 355 354 354 356 356
357 356 355 354 355 355 356 356 355 354 353 353 354 356 358 358 357 356 355 356 359 359 360 361 362 347 336 333 334 335 342 360 360 360 360 359 358 357 356 355 355 356
359 357 356 355 355 355 356 356 355 354 353 353 353 355 357 358 357 357 356 355 357 359 359 361 362 345 334 332 332 333 333 346 360 360 359 359 359 358 357 356 355 355
360 358 357 357 357 356 356 356 355 354 353 354 355 355 355 356 358 358 357 357 355 356 359 361 361 346 332 329 329 330 332 338 359 359 359 359 359 359 358 357 356 355
361 360 358 358 358 358 357 356 356 355 354 354 355 355 354 354 355 357 358 358 358 356 357 359 362 341 330 327 326 326 329 333 356 359 359 358 359 359 359 358 357 357
362 360 360 359 359 358 357 356 357 356 355 355 355 355 356 355 355 355 357 358 359 358 356 356 361 336 328 326 325 325 327 342 353 357 357 357 357 358 359 359 358 357
362 362 361 360 360 359 358 357 357 357 358 357 355 354 354 355 355 355 356 357 358 359 357 356 357 340 326 324 323 323 327 347 352 355 357 357 357 357 358 359 359 358
363 363 362 361 361 360 360 359 359 359 359 360 357 355 354 355 356 356 357 357 357 359 359 358 358 345 321 321 321 321 330 350 353 354 356 356 357 358 358 358 359 350
365 365 364 363 362 362 362 361 360 360 360 362 361 359 357 357 357 357 357 358 359 359 354 358 360 350 319 317 317 318 329 351 355 355 355 356 357 357 357 358 358 355
365 365 366 365 365 364 364 363 363 362 362 363 362 361 359 358 357 357 357 358 359 359 360 359 360 361 339 314 315 315 320 347 355 355 354 355 357 357 357 357 357 358
Wind_Speed
13 12 12 11 11 10 10 10 10 10 8 8 9 9 10 9 9 9 9 9 9 9 8 8 8 8 7 6 7 7 7 8 7 6 7 7 6 6 6 5 5 5
15 14 11 11 10 9 9 10 11 11 10 8 8 7 7 9 10 10 9 10 10 10 8 8 8 8 8 7 6 8 7 7 8 6 7 8 7 7 7 6 6 5
15 14 14 14 13 13 13 10 11 11 10 9 7 7 7 9 10 10 9 9 10 10 10 8 8 8 8 8 7 7 8 8 8 7 7 8 7 8 7 7 6 7
16 16 16 15 14 13 12 10 9 9 9 9 10 9 9 8 9 10 10 10 9 10 10 9 9 9 9 9 8 7 8 9 8 8 8 6 7 8 8 6 7 6
17 16 15 14 13 12 11 11 11 10 11 12 10 9 9 9 9 10 10 10 10 10 10 11 9 9 9 9 9 8 7 8 8 7 8 8 7 8 7 7 7 8
14 14 14 14 13 13 12 13 13 12 12 11 12 10 10 11 11 11 11 11 10 11 11 11 10 10 10 9 9 9 9 8 8 8 8 9 8 7 7 7 7 8
16 15 15 13 13 13 13 14 13 12 11 11 10 11 10 10 11 12 12 11 11 11 12 11 11 11 10 10 9 9 9 9 9 10 9 8 8 9 8 8 8 8
18 16 15 14 15 14 14 14 13 12 12 10 11 12 12 12 11 11 11 12 11 12 12 12 12 12 11 10 11 11 10 9 10 11 10 9 8 10 10 8 8 9
16 15 15 15 15 14 15 14 13 13 11 12 12 11 11 12 12 11 11 12 12 11 11 12 12 12 11 11 12 12 12 11 11 11 12 11 11 11 11 10 9 9
15 14 15 16 16 14 15 15 13 13 12 12 13 11 11 11 12 12 10 11 12 12 12 12 12 13 12 12 13 13 13 13 12 12 12 13 12 12 11 11 12 10
16 15 16 17 16 15 16 15 14 13 12 13 12 12 12 11 10 11 12 11 12 13 13 13 13 13 13 13 13 13 13 13 13 12 12 13 13 13 12 13 13 13
17 16 17 18 17 16 17 16 14 13 13 13 13 13 12 12 12 11 12 13 13 13 13 14 13 13 14 15 14 13 13 13 12 12 12 12 12 13 13 12 13 14
17 17 17 17 17 16 15 14 14 14 14 14 13 14 13 12 13 13 12 13 14 13 13 14 14 14 14 14 13 13 13 13 13 13 13 12 12 13 13 13 13 13
17 17 17 17 16 15 15 15 14 14 14 13 13 15 14 14 14 14 13 13 14 14 14 12 13 13 13 13 13 13 13 14 14 14 14 13 12 13 13 14 14 14
16 15 15 15 15 15 15 15 15 14 14 13 14 14 14 15 14 13 13 14 13 13 13 13 13 13 12 13 13 14 14 14 15 14 14 14 13 13 13 14 14 14
16 15 15 15 15 16 16 15 14 14 15 15 15 15 15 14 14 13 14 14 14 13 13 13 13 11 14 19 17 14 14 12 12 14 14 14 14 13 13 14 15 14
15 15 15 16 16 15 15 16 16 14 14 14 14 14 14 14 14 15 14 13 15 15 15 14 13 12 18 18 19 21 15 13 13 13 14 14 14 14 14 14 13 14
15 15 16 16 15 16 16 16 15 14 14 14 13 13 13 13 14 15 14 13 13 15 15 14 14 17 19 19 20 21 19 15 13 12 12 13 14 14 14 13 14 13
15 16 16 15 16 16 14 14 15 15 14 13 15 14 12 13 15 15 15 14 13 14 15 15 14 18 19 21 21 22 22 19 13 13 13 13 14 15 15 14 13 12
15 16 16 16 15 14 13 13 14 15 15 13 12 11 12 13 13 15 15 14 14 14 14 15 15 17 21 22 22 23 23 20 15 15 14 13 14 14 13 14 14 13
15 15 15 15 14 14 13 14 14 14 14 13 12 13 14 14 14 14 14 14 15 14 13 13 13 18 20 22 22 23 23 20 15 13 12 12 12 13 14 13 13 13
15 15 15 14 14 13 14 15 14 14 14 13 12 12 12 11 11 12 13 13 13 13 13 13 12 17 20 21 22 21 21 15 14 14 14 13 13 13 13 12 12 13
15 15 14 14 14 14 15 15 14 13 12 10 12 12 12 13 13 13 12 13 13 13 14 13 11 13 19 21 21 21 16 12 13 13 14 15 15 13 12 12 12 13
13 14 14 14 14 15 14 12 12 10 11 10 12 12 13 13 12 11 11 11 12 13 14 13 12 11 16 18 20 21 19 14 12 13 15 15 14 12 10 11 13 18
12 13 14 14 14 13 12 12 12 12 10 9 10 10 11 9 9 9 9 9 11 11 12 13 10 10 14 16 18 18 17 12 12 13 14 14 12 12 12 11 12 12
11 12 12 13 13 11 11 11 9 9 10 11 10 9 9 8 8 8 9 9 8 9 9 9 9 8 9 16 17 19 20 13 10 11 13 12 11 12 11 12 11 11
Wind_Direction
190 189 189 189 192 192 186 186 189 192 190 187 184 186 187 185 182 186 183 184 186 186 185 187 184 184 190 182 183 183 178 179 180 171 179 174 184 182 191 195 191 180
191 190 191 191 192 192 190 186 186 189 192 189 190 178 178 177 187 186 182 184 185 189 185 183 185 183 185 191 182 181 181 178 183 176 176 181 186 186 197 199 197 193
190 191 192 192 193 193 191 187 185 189 190 192 183 181 177 181 185 188 188 183 186 188 188 184 187 186 184 189 184 178 181 183 183 185 178 187 185 189 200 197 201 201
193 193 194 196 194 193 192 187 185 186 187 188 192 187 185 184 182 187 190 187 185 188 190 189 188 189 187 187 187 183 185 188 186 179 186 185 190 192 197 195 201 209
195 195 197 196 195 192 190 193 191 187 189 192 188 185 185 187 186 189 189 192 187 188 189 192 189 189 189 186 185 190 185 188 190 180 184 190 194 190 199 194 199 207
204 201 198 195 193 190 192 196 196 192 190 186 191 188 187 186 190 192 191 190 190 189 190 191 192 191 189 189 187 192 192 191 192 187 186 193 196 196 196 199 202 206
200 200 200 197 196 195 196 198 198 196 193 191 184 191 187 187 190 193 192 191 188 190 190 191 192 192 190 189 191 194 194 197 194 194 193 195 193 199 201 198 204 209
200 198 198 197 197 196 198 198 199 198 196 190 189 193 190 193 191 191 192 191 190 191 192 192 193 194 191 190 195 195 197 195 197 196 200 197 194 200 202 202 199 208
199 198 197 198 198 198 200 199 198 199 195 194 196 193 192 194 196 192 190 191 194 192 191 192 194 195 194 194 196 196 196 198 198 197 199 199 198 203 201 200 200 205
200 199 198 199 201 200 201 200 197 198 196 197 199 195 193 195 194 195 189 191 194 195 195 194 194 196 197 198 198 197 198 199 198 199 200 201 201 202 201 199 204 204
200 198 199 200 201 202 203 200 198 196 195 198 197 198 197 194 195 194 195 192 195 196 198 198 197 197 198 200 200 199 199 200 201 201 203 203 204 203 200 201 203 206
199 198 200 200 201 202 202 200 199 197 195 197 197 198 196 196 195 195 196 199 199 198 199 200 200 200 201 202 200 198 199 202 203 204 205 205 206 207 206 204 206 208
198 199 199 200 200 202 201 199 200 199 196 196 196 198 197 197 197 198 198 199 202 201 201 200 202 203 203 203 202 199 199 201 204 207 208 208 208 208 208 208 209 210
200 200 199 199 198 198 200 200 200 200 199 196 194 199 201 201 199 199 200 200 202 204 204 201 203 205 204 203 202 201 200 203 204 206 208 211 211 211 210 211 211 211
199 200 200 198 196 196 198 200 201 200 198 197 196 199 202 204 203 199 200 204 203 203 204 205 207 207 204 201 201 204 203 204 205 207 208 210 212 213 213 214 214 215
198 198 198 197 196 196 198 199 199 199 199 199 199 200 200 201 202 203 203 203 202 203 203 206 211 210 207 202 201 202 205 206 204 208 210 211 212 214 216 215 217 217
194 198 197 199 199 197 197 199 201 199 200 201 200 198 198 197 199 204 207 202 202 202 204 208 210 212 204 200 202 203 204 209 207 209 210 212 213 213 217 217 219 219
194 195 197 200 198 199 197 198 199 200 202 202 201 199 198 195 199 204 207 204 202 204 207 208 211 209 200 199 200 202 204 208 212 212 211 213 215 215 217 219 219 219
191 194 198 199 201 200 199 197 198 201 202 200 203 201 196 198 202 202 206 207 203 203 208 210 213 206 198 198 199 201 205 208 215 215 214 215 216 217 218 217 217 219
189 192 196 199 199 200 200 200 199 202 203 202 201 198 200 204 203 205 207 207 208 206 208 211 213 204 197 198 199 201 204 206 218 217 219 220 219 221 223 221 217 217
189 191 194 195 195 196 198 201 202 204 203 202 200 201 202 205 205 206 208 208 209 210 210 213 216 202 195 197 199 200 203 203 218 222 225 226 225 226 227 226 223 222
188 190 192 192 192 194 197 201 203 203 203 201 202 205 207 208 212 211 211 211 211 212 215 217 216 200 195 197 198 199 197 203 215 222 226 228 227 227 226 225 225 223
190 189 189 190 190 193 198 200 201 203 204 198 204 208 207 207 208 211 211 211 210 212 217 222 220 202 194 195 196 194 190 207 211 219 226 230 232 228 227 226 225 224
189 188 188 189 190 195 197 198 199 202 202 197 205 208 211 211 210 213 213 212 212 214 215 222 224 207 191 195 193 189 190 200 208 214 224 229 233 232 231 232 229 224
186 187 188 189 192 193 191 193 196 198 197 195 206 209 215 215 213 215 215 216 217 218 215 219 224 215 184 183 190 191 194 205 205 214 222 226 227 233 233 236 237 229
185 184 186 188 189 188 189 192 188 190 193 196 202 205 209 213 213 213 214 216 214 217 219 214 218 220 184 179 179 187 193 203 212 214 226 226 227 233 237 238 239 241